User: anonymous   Login
Location: Unspecified
(0.0000°N, 0.0000°E)
Time: 15:45:14
(UTC+00:00)
Language:

CARTOSAT 2D - Orbit

View from above orbital plane
View from above orbital plane
View from above satellite
View from above satellite

Ground track
Ground track

The orbit data is extracted from the following two-line orbital elements,

1 41948U 17008A   22229.08854706  .00002585  00000-0  12566-3 0  9990
2 41948  97.4609 288.0264 0008010 110.3344 249.8752 15.19298144305007
Epoch (UTC): 17 August 2022 02:07:30
Eccentricity: 0.0008010
inclination: 97.4609°
perigee height: 502 km
apogee height: 513 km
right ascension of ascending node: 288.0264°
argument of perigee: 110.3344°
revolutions per day: 15.19298144
mean anomaly at epoch: 249.8752°
orbit number at epoch: 30500

The dashed part of the orbit path shows where the satellite is in the earth's shadow,  

DLR